This is the latest recevied weather packets stored in our database for station/object N0KWA. If no packets are shown the sender has not sent any weather packets the latest 10 day(s).
| Time | Temp. | Humidity | Pressure | Rain* | Wind** | Luminosity | Snow |
|---|---|---|---|---|---|---|---|
| 1778009605 | 28.33° C | 66% | 1014.1 hPa | 0 mm | - | 86 W/m² | - |
| 1778009302 | 28.33° C | 66% | 1014.2 hPa | 0 mm | - | 130 W/m² | - |
| 1778009001 | 27.78° C | 65% | 1014.2 hPa | 0 mm | - | 243 W/m² | - |
| 1778008697 | 27.78° C | 65% | 1014.2 hPa | 0 mm | - | 50 W/m² | - |
| 1778008396 | 27.78° C | 65% | 1014.6 hPa | 0 mm | - | 46 W/m² | - |
| 1778008093 | 28.33° C | 62% | 1014.3 hPa | 0 mm | - | 51 W/m² | - |
| 1778007788 | 28.33° C | 64% | 1014.6 hPa | 0 mm | - | 108 W/m² | - |
| 1778007484 | 28.33° C | 65% | 1014.4 hPa | 0 mm | - | 45 W/m² | - |
| 1778007181 | 28.33° C | 64% | 1014.6 hPa | 0 mm | - | 79 W/m² | - |
| 1778006876 | 28.33° C | 66% | 1014.8 hPa | 0 mm | - | 55 W/m² | - |
| 1778006574 | 28.33° C | 64% | 1014.8 hPa | 0 mm | - | 248 W/m² | - |
| 1778006270 | 28.33° C | 66% | 1014.9 hPa | 0 mm | - | 568 W/m² | - |
| 1778005968 | 27.78° C | 69% | 1015.1 hPa | 0 mm | - | 86 W/m² | - |
| 1778005664 | 27.78° C | 65% | 1014.9 hPa | 0 mm | - | 158 W/m² | - |
| 1778005361 | 28.33° C | 67% | 1015 hPa | 0 mm | - | 767 W/m² | - |
| 1778005057 | 27.78° C | 65% | 1014.9 hPa | 0 mm | - | 797 W/m² | - |
| 1778004755 | 27.78° C | 65% | 1015 hPa | 0 mm | - | 860 W/m² | - |
| 1778004452 | 27.22° C | 66% | 1014.9 hPa | 0 mm | - | 209 W/m² | - |
| 1778004148 | 27.22° C | 72% | 1015 hPa | 0 mm | - | 810 W/m² | - |
| 1778003845 | 27.22° C | 67% | 1015 hPa | 0 mm | - | 734 W/m² | - |
| 1778003541 | 27.22° C | 69% | 1015 hPa | 0 mm | - | 684 W/m² | - |
| 1778003238 | 27.22° C | 68% | 1015.1 hPa | 0 mm | - | 699 W/m² | - |
| 1778002935 | 27.22° C | 68% | 1015.1 hPa | 0 mm | - | 245 W/m² | - |
| 1778002631 | 27.22° C | 69% | 1015.1 hPa | 0 mm | - | 39 W/m² | - |
| 1778002328 | 26.67° C | 70% | 1015.1 hPa | 0 mm | - | 277 W/m² | - |
* Rain latest hour (hover to see other rain measurements)
** Current wind speed in m/s (hover to see current wind gust speed)